Location: Blangermont
(50.3293°N, 2.2201°E)
Time: 23:38:08
(UTC+00:00)

Daily predictions for brighter satellites

Satellite Brightness Start Highest point End
(mag) Time Altitude Azimuth Time Altitude Azimuth Time Altitude Azimuth
Cosmos 2279 Rocket 4.3 16:18:25 10° SSE 16:24:15 45° E 16:30:08 10° NNE
Cosmos 1570 Rocket 4.0 16:20:33 10° NNW 16:25:56 74° ENE 16:31:14 10° SSE
Cosmos 1092 Rocket 4.1 16:20:35 10° N 16:26:47 89° WSW 16:32:55 10° S
Cosmos 836 Rocket 4.5 16:23:57 10° NNW 16:29:13 71° ENE 16:34:27 10° SSE
SMAP 3.5 16:26:42 10° SE 16:31:03 41° ENE 16:35:26 10° N
Cosmos 1656 4.1 16:26:15 10° S 16:31:33 45° ESE 16:36:55 10° NE
NOSS 2-2 (C) 2.6 16:31:46 10° SW 16:34:59 86° SE 16:38:00 10° NE
Cosmos 1867 4.0 16:29:49 10° NNW 16:35:02 43° NE 16:40:13 10° ESE
YAOGAN 1 4.3 16:33:33 10° E 16:35:18 12° NE 16:37:03 10° NNE
Cosmos 2228 2.9 16:31:10 10° S 16:35:22 70° E 16:39:38 10° NNE
Landsat 7 4.3 16:32:19 10° SE 16:36:34 36° ENE 16:40:50 10° N
SAR-Lupe-4 4.5 16:33:49 10° SE 16:36:51 27° ENE 16:39:54 10° N
Cosmos 2297 Rocket 2.2 16:33:41 10° NNW 16:39:19 62° ENE 16:44:56 10° SE
USA 290 2.7 16:36:25 10° NNW 16:39:31 39° ENE 16:42:36 10° SE
USA 215 3.7 16:35:52 10° ENE 16:42:09 51° N 16:48:27 10° WNW
Cosmos 773 Rocket 3.9 16:37:31 10° NNW 16:42:45 74° ENE 16:47:59 10° SSE
Cosmos 1782 2.8 16:42:22 10° SSE 16:45:50 46° E 16:49:18 10° NNE
ATLAS CENTAUR R/B 0.7 16:43:02 10° NW 16:46:19 84° SW 16:49:28 10° SE
CZ-4C R/B 2.9 16:40:23 10° NW 16:46:58 65° NE 16:55:18 10° ESE
Cosmos 1607 3.9 16:42:10 10° NW 16:48:25 73° NE 16:54:41 10° SE
Cosmos 1733 0.8 16:47:53 10° N 16:49:29 61° E 16:51:03 10° SSE
CZ-2D R/B 3.4 16:49:29 10° SE 16:52:20 33° ENE 16:55:13 10° N
Lacrosse 4 Rocket 2.6 16:51:06 10° WSW 16:54:51 35° NW 16:58:35 10° NNE
IRS-P3 4.5 16:50:28 10° SE 16:55:26 42° ENE 17:00:25 10° N
Cosmos 2219 4.4 16:51:08 10° NNW 16:55:38 23° NE 16:59:37 12° E
Cosmos 1825 Rocket 4.3 16:52:33 10° N 16:56:23 29° ENE 17:00:09 10° SE
ARIANE 5 R/B 2.6 16:52:10 10° SE 16:57:06 57° ENE 17:02:08 10° N
Iridium 51 4.3 16:54:31 10° SSW 16:57:36 60° W 17:00:47 10° N
Cosmos 1758 Rocket 3.5 16:54:27 10° N 16:58:47 87° E 17:03:04 10° S
Cosmos 2266 Rocket 4.0 16:52:48 10° N 16:58:52 54° ENE 17:04:47 10° SSE
Cosmos 1315 Rocket 3.6 16:55:12 10° SSW 16:58:55 49° WNW 17:02:40 10° N
Cosmos 2098 Rocket 3.1 16:58:13 10° S 17:02:14 63° E 17:07:01 10° NNE
Cosmos 2208 Rocket 4.1 16:57:15 10° NNW 17:02:26 79° WSW 17:07:36 10° SSE
Cosmos 2151 2.9 17:00:01 10° N 17:04:08 60° ENE 17:08:15 10° SSE
Cosmos 1743 2.1 17:01:34 10° N 17:04:51 74° E 17:08:04 10° SSE
Cosmos 1980 Rocket 3.7 17:03:59 10° SE 17:07:05 15° E 17:08:01 15° E
SPOT 1/Viking Rocket 4.1 17:02:26 10° SE 17:07:09 36° ENE 17:11:53 10° N
Cosmos 1844 Rocket 4.4 17:06:50 10° N 17:09:44 14° NNE 17:10:59 13° NE
SL-16 R/B 2.9 17:09:31 10° NNE 17:15:44 69° WNW 17:21:53 10° SSW
Cosmos 2263 Rocket 2.7 17:12:19 10° NNW 17:17:34 37° NE 17:22:48 10° ESE
NOSS 3-2 (C) 3.4 17:14:06 10° SSW 17:18:58 52° ESE 17:23:02 19° NE
NOSS 3-2 (A) 3.3 17:13:52 10° SW 17:18:59 76° NW 17:24:04 16° NE
CORIOLIS 4.4 17:14:55 10° S 17:20:14 74° WSW 17:25:36 10° NNW
Cosmos 783 Rocket 4.4 17:18:12 10° NNW 17:23:33 77° ENE 17:28:50 10° SSE
GEOS 3 Rocket 3.7 17:19:36 16° NE 17:24:04 90° W 17:29:28 10° SW
MOS 1 Rocket 3.4 17:19:26 10° SSE 17:24:18 70° ENE 17:29:28 10° N
BREEZE M DEB (TANK) 3.0 17:22:57 10° SW 17:24:58 24° SSE 17:25:20 23° SE
Cosmos 1076 Rocket 4.0 17:21:49 10° N 17:25:48 36° ENE 17:29:47 10° SE
AQUARIUS 4.0 17:22:54 10° SSE 17:27:18 78° ENE 17:31:44 10° NNW
Cosmos 1933 3.4 17:24:41 10° S 17:28:23 49° E 17:30:45 20° NNE
SJ-12 3.7 17:26:25 10° SSE 17:30:12 84° WSW 17:34:01 10° NNW
Cosmos 2084 Rocket 3.5 17:26:05 10° NW 17:30:18 79° SW 17:34:31 10° SE
Cosmos 2227 Rocket 2.1 17:24:53 10° NNW 17:30:32 67° ENE 17:36:09 10° SE
Cosmos 1538 Rocket 4.4 17:26:31 10° NNW 17:31:29 40° ENE 17:36:27 10° SE
BlueWalker 3 4.3 17:28:55 10° W 17:31:46 22° SW 17:34:37 10° S
Cosmos 1606 Rocket 3.7 17:27:36 10° S 17:31:52 52° E 17:35:23 15° NNE
Meteor 1-28 Rocket 4.4 17:29:17 10° N 17:32:24 36° WNW 17:35:30 10° SW
Cosmos 2360 4.2 17:26:49 10° SSW 17:32:32 90° ESE 17:37:26 15° NNE
Cosmos 1900 4.3 17:27:54 10° NW 17:33:00 88° SW 17:37:58 10° SE
Cosmos 2369 Rocket 4.3 17:31:50 10° WNW 17:35:34 18° NNW 17:39:20 10° N
PSLV R/B 4.0 17:36:04 29° E 17:37:03 34° ENE 17:40:43 10° N
CZ-2D R/B 3.6 17:33:45 10° SE 17:37:47 47° ENE 17:41:47 10° N
COSMO-SKYMED 1 3.5 17:39:14 26° ESE 17:39:14 26° ESE 17:42:05 10° SSE
NOSS 2-2 (D) 3.5 17:35:50 10° WSW 17:38:54 43° NW 17:40:03 29° NNE
SL-19 R/B 4.4 17:36:28 10° SE 17:41:35 47° ENE 17:47:00 10° N
Resurs 1-3 3.8 17:37:45 10° SE 17:41:49 42° ENE 17:45:54 10° N
Cosmos 1503 Rocket 3.9 17:36:59 10° SSW 17:42:14 82° ESE 17:46:10 18° NNE
BREEZE-M DEB (TANK) 3.6 17:39:27 10° W 17:42:41 81° S 17:48:33 21° E
Cosmos 1697 Rocket 2.7 17:42:10 10° SSW 17:47:40 61° ESE 17:50:44 27° NE
Okean 1-7 Rocket 3.9 17:44:46 10° NNW 17:49:09 68° W 17:53:28 10° S
Lacrosse 5 rocket 2.1 17:45:50 10° WNW 17:49:13 32° NNW 17:49:58 29° NNE
Cosmos 1354 Rocket 3.9 17:45:16 10° SSW 17:50:30 69° ESE 17:53:34 25° NNE
BREEZE-M DEB (TANK) 3.8 17:48:32 10° W 17:51:55 72° N 17:57:03 26° E
Cosmos 1461 2.6 17:49:22 10° SW 17:53:16 86° SE 17:54:18 48° NE
NOSS 2-2 (E) 3.6 17:50:46 10° WSW 17:53:48 39° NW 17:54:24 35° N
Spot 4 Rocket 3.9 17:50:31 10° SSE 17:55:34 66° ENE 18:00:40 10° N
IRAS Rocket 4.2 17:51:26 10° SE 17:56:49 59° ENE 18:02:12 10° N
Cosmos 1726 Rocket 3.6 17:52:30 10° S 17:57:07 70° E 17:59:49 24° NNE
Cosmos 1655 Rocket 3.9 17:53:57 10° N 18:00:14 81° E 18:06:27 10° SSE
SKYMED 2 3.5 17:59:36 37° NNE 18:01:14 67° ESE 18:05:32 10° S
Cosmos 1777 Rocket 4.4 17:56:10 10° SW 18:01:23 64° WNW 18:05:19 18° NNE
Gbstr 26 Del rocket 3.3 17:58:52 10° SW 18:02:36 40° SSE 18:02:38 40° SSE
NOAA 15 4.5 18:00:49 10° SSE 18:06:07 82° ENE 18:11:26 10° NNW
Meteor 2-10 4.0 18:02:08 10° N 18:07:27 65° ENE 18:12:54 10° SSE
CENTAUR R/B 3.7 18:02:31 10° W 18:08:18 36° NNW 18:12:28 21° NNE
YAOGAN 1 2.4 18:06:12 10° SSE 18:10:27 83° ENE 18:14:45 10° NNW
Cosmos 2082 3.8 18:10:54 10° NNW 18:16:31 52° NE 18:17:03 50° ENE
USA 281 4.4 18:17:16 24° NNE 18:17:16 24° NNE 18:21:37 10° NNW
Meteor 1-26 Rocket 4.3 18:13:27 10° SSE 18:18:03 48° ESE 18:18:03 48° ESE
USA 238 DEB 3.7 18:13:18 10° SSW 18:19:07 48° ESE 18:19:57 45° E
USA 238 3.7 18:13:25 10° SSW 18:19:13 48° ESE 18:20:02 45° E
Resurs 01 Rocket 4.0 18:25:00 12° N 18:25:00 12° N 18:25:18 10° N
Cosmos 2297 Rocket 4.3 18:18:20 10° NW 18:22:56 26° WSW 18:27:33 10° SSW
Cosmos 1953 Rocket 3.8 18:19:03 10° NNW 18:23:28 69° W 18:27:53 10° S
USA 215 3.4 18:22:49 44° ENE 18:24:40 58° NNE 18:31:04 10° WNW
Cosmos 372 Rocket 4.3 18:22:25 10° S 18:26:26 46° SSE 18:26:26 46° SSE
Aureole 1 Rocket 3.8 18:24:12 10° S 18:27:16 44° SSE 18:27:16 44° SSE
Lacrosse 4 Rocket 4.0 18:33:33 10° NNW 18:33:50 10° NNW 18:34:08 10° NNW
CZ-4C R/B 4.0 18:28:41 10° NW 18:35:23 44° WSW 18:43:26 10° S
USA 81 4.2 18:31:48 10° N 18:37:05 73° W 18:42:18 10° S
Cosmos 990 Rocket 4.3 18:33:04 10° SW 18:38:09 61° WNW 18:39:47 41° N
Cosmos 2219 3.1 18:34:49 10° NNW 18:40:36 87° ENE 18:41:34 64° SE
NOAA 6 4.0 18:35:44 10° S 18:40:50 78° WSW 18:45:59 10° NNW
Cosmos 1980 Rocket 2.1 18:44:31 10° SSW 18:49:48 77° S 18:49:48 77° S
Cosmos 2058 Rocket 4.2 18:49:07 10° SSW 18:51:55 37° SSW 18:51:55 37° SSW
Nadezhda 2 Rocket 4.4 18:48:21 10° NNW 18:54:31 81° W 19:00:36 10° S
Cosmos 1844 Rocket 4.0 18:49:47 10° NNW 18:52:38 27° N 18:52:38 27° N
Cosmos 2263 Rocket 3.0 18:56:11 10° NW 19:01:38 48° WSW 19:04:58 22° S
Cosmos 1553 Rocket 3.9 19:00:34 10° S 19:06:43 83° W 19:06:49 82° WNW
NOSS 3-2 (C) 4.1 19:04:51 10° WSW 19:09:57 43° NNW 19:10:27 42° NNW
Cosmos 2227 Rocket 4.3 19:09:40 10° NW 19:14:04 24° WSW 19:18:27 10° SSW
Cosmos 1697 Rocket 4.2 19:27:04 10° WSW 19:32:00 31° NW 19:32:28 30° NW
CENTAUR R/B 4.2 19:54:47 10° NW 19:59:33 29° NNW 19:59:33 29° NNW
USA 215 4.3 20:10:10 40° WNW 20:10:10 40° WNW 20:14:09 10° WNW
